Previsão horária em Plotnikovo

Hoje, 3 Março, Quarta-feira

Tempo Temperatura Precipitação Vento Pressão Humidade
00:00 -18°C° 0 mm 1 m/s 746 mmHg 97%
01:00 -18°C° 0 mm 1 m/s 746 mmHg 97%
02:00 -18°C° 0 mm 1 m/s 746 mmHg 97%
03:00 -18°C° 0 mm 1 m/s 746 mmHg 98%
04:00 -18°C° 0 mm 1 m/s 746 mmHg 97%
05:00 -18°C° 0 mm 1 m/s 746 mmHg 97%
06:00 -17°C° 0 mm 1 m/s 746 mmHg 97%
07:00 -16°C° 0 mm 1 m/s 746 mmHg 96%
08:00 -15°C° 0 mm 1 m/s 746 mmHg 95%
09:00 -15°C° 0 mm 1 m/s 746 mmHg 94%
10:00 -13°C° 0 mm 1 m/s 747 mmHg 92%
11:00 -12°C° 0 mm 1 m/s 747 mmHg 90%
12:00 -10°C° 0 mm 1 m/s 747 mmHg 88%
13:00 -12°C° 0 mm 2 m/s 747 mmHg 88%
14:00 -12°C° 0 mm 2 m/s 747 mmHg 89%
15:00 -10°C° 0 mm 2 m/s 747 mmHg 89%
16:00 -13°C° 0 mm 2 m/s 747 mmHg 91%
17:00 -14°C° 0 mm 2 m/s 747 mmHg 93%
18:00 -15°C° 0 mm 2 m/s 747 mmHg 95%
19:00 -15°C° 0 mm 2 m/s 748 mmHg 95%
20:00 -16°C° 0 mm 2 m/s 748 mmHg 95%
21:00 -17°C° 0 mm 3 m/s 748 mmHg 95%
22:00 -17°C° 0 mm 3 m/s 748 mmHg 95%
23:00 -17°C° 0 mm 3 m/s 748 mmHg 95%

Amanhã, 4 Março, Quinta-feira

Tempo Temperatura Precipitação Vento Pressão Humidade
00:00 -17°C° 0 mm 3 m/s 749 mmHg 94%
01:00 -18°C° 0 mm 4 m/s 748 mmHg 94%
02:00 -18°C° 0 mm 4 m/s 748 mmHg 93%
03:00 -18°C° 0 mm 4 m/s 748 mmHg 92%
04:00 -19°C° 0 mm 5 m/s 748 mmHg 91%
05:00 -19°C° 0 mm 5 m/s 748 mmHg 90%
06:00 -18°C° 0 mm 5 m/s 748 mmHg 89%
07:00 -18°C° 0.1 mm 5 m/s 748 mmHg 90%
08:00 -17°C° 0.1 mm 6 m/s 747 mmHg 91%
09:00 -17°C° 0.1 mm 6 m/s 747 mmHg 92%
10:00 -15°C° 0.3 mm 6 m/s 747 mmHg 92%
11:00 -14°C° 0.3 mm 6 m/s 747 mmHg 92%
12:00 -12°C° 0.3 mm 6 m/s 747 mmHg 92%
13:00 -11°C° 0.3 mm 6 m/s 746 mmHg 92%
14:00 -10°C° 0.3 mm 6 m/s 746 mmHg 92%
15:00 -10°C° 0.3 mm 6 m/s 746 mmHg 93%
16:00 -8°C° 0.3 mm 5 m/s 746 mmHg 93%
17:00 -8°C° 0.3 mm 5 m/s 746 mmHg 93%
18:00 -8°C° 0.3 mm 5 m/s 745 mmHg 93%
19:00 -8°C° 0.3 mm 5 m/s 745 mmHg 93%
20:00 -8°C° 0.3 mm 5 m/s 745 mmHg 93%
21:00 -8°C° 0.3 mm 5 m/s 745 mmHg 93%
22:00 -8°C° 0.2 mm 5 m/s 744 mmHg 92%
23:00 -8°C° 0.2 mm 5 m/s 744 mmHg 92%

Depois de amanhã, 5 Março, Sexta-feira

Tempo Temperatura Precipitação Vento Pressão Humidade
00:00 -9°C° 0.2 mm 6 m/s 744 mmHg 91%
01:00 -8°C° 0.1 mm 5 m/s 743 mmHg 91%
02:00 -10°C° 0.1 mm 5 m/s 743 mmHg 90%
03:00 -11°C° 0.1 mm 5 m/s 742 mmHg 90%
04:00 -11°C° 0 mm 5 m/s 742 mmHg 89%
05:00 -11°C° 0 mm 5 m/s 742 mmHg 87%
06:00 -11°C° 0 mm 5 m/s 742 mmHg 86%
07:00 -10°C° 0 mm 5 m/s 741 mmHg 85%
08:00 -10°C° 0 mm 6 m/s 741 mmHg 83%
09:00 -10°C° 0 mm 6 m/s 741 mmHg 82%
10:00 -9°C° 0.3 mm 6 m/s 741 mmHg 86%
11:00 -9°C° 0.3 mm 6 m/s 740 mmHg 89%
12:00 -8°C° 0.3 mm 7 m/s 740 mmHg 93%
13:00 -8°C° 0.4 mm 6 m/s 740 mmHg 92%
14:00 -6°C° 0.4 mm 6 m/s 740 mmHg 91%
15:00 -6°C° 0.4 mm 6 m/s 740 mmHg 89%
16:00 -6°C° 0.1 mm 6 m/s 741 mmHg 88%
17:00 -8°C° 0.1 mm 6 m/s 742 mmHg 87%
18:00 -8°C° 0.1 mm 6 m/s 743 mmHg 86%
19:00 -9°C° 0 mm 6 m/s 743 mmHg 87%
20:00 -8°C° 0 mm 5 m/s 744 mmHg 88%
21:00 -10°C° 0 mm 5 m/s 744 mmHg 89%
22:00 -10°C° 0.3 mm 5 m/s 745 mmHg 90%
23:00 -11°C° 0.3 mm 5 m/s 745 mmHg 91%

6 Março, Sábado

Tempo Temperatura Precipitação Vento Pressão Humidade
00:00 -11°C° 0.3 mm 5 m/s 745 mmHg 92%
01:00 -11°C° 0.2 mm 5 m/s 745 mmHg 92%
02:00 -11°C° 0.2 mm 5 m/s 745 mmHg 92%
03:00 -10°C° 0.2 mm 4 m/s 746 mmHg 92%
04:00 -10°C° 0.1 mm 4 m/s 746 mmHg 92%
05:00 -10°C° 0.1 mm 4 m/s 746 mmHg 92%
06:00 -10°C° 0.1 mm 4 m/s 746 mmHg 92%
07:00 -9°C° 0.1 mm 4 m/s 746 mmHg 93%
08:00 -10°C° 0.1 mm 5 m/s 746 mmHg 93%
09:00 -10°C° 0.1 mm 5 m/s 745 mmHg 93%
10:00 -8°C° 0.4 mm 5 m/s 745 mmHg 93%
11:00 -9°C° 0.4 mm 6 m/s 744 mmHg 93%
12:00 -8°C° 0.4 mm 6 m/s 743 mmHg 93%
13:00 -8°C° 0.2 mm 6 m/s 743 mmHg 91%
14:00 -8°C° 0.2 mm 6 m/s 742 mmHg 88%
15:00 -7°C° 0.2 mm 7 m/s 742 mmHg 86%
16:00 -8°C° 0 mm 7 m/s 741 mmHg 86%
17:00 -8°C° 0 mm 6 m/s 741 mmHg 85%
18:00 -8°C° 0 mm 6 m/s 741 mmHg 84%
19:00 -8°C° 0.3 mm 6 m/s 740 mmHg 86%
20:00 -9°C° 0.3 mm 6 m/s 740 mmHg 89%
21:00 -9°C° 0.3 mm 7 m/s 740 mmHg 91%
22:00 -9°C° 0.1 mm 7 m/s 740 mmHg 90%
23:00 -9°C° 0.1 mm 7 m/s 740 mmHg 89%

7 Março, Domingo

Tempo Temperatura Precipitação Vento Pressão Humidade
00:00 -9°C° 0.1 mm 7 m/s 739 mmHg 88%
01:00 -8°C° 0.1 mm 7 m/s 740 mmHg 89%
02:00 -8°C° 0.1 mm 7 m/s 740 mmHg 90%
03:00 -8°C° 0.1 mm 7 m/s 740 mmHg 92%
04:00 -8°C° 0.1 mm 6 m/s 740 mmHg 91%
05:00 -8°C° 0.1 mm 6 m/s 741 mmHg 90%
06:00 -9°C° 0.1 mm 6 m/s 742 mmHg 89%
07:00 -9°C° 0 mm 6 m/s 743 mmHg 88%
08:00 -10°C° 0 mm 6 m/s 743 mmHg 87%
09:00 -10°C° 0 mm 6 m/s 744 mmHg 87%
10:00 -10°C° 0 mm 5 m/s 744 mmHg 86%
11:00 -8°C° 0 mm 5 m/s 745 mmHg 86%
12:00 -8°C° 0 mm 5 m/s 745 mmHg 86%
13:00 -8°C° 0 mm 5 m/s 745 mmHg 86%
14:00 -7°C° 0 mm 4 m/s 745 mmHg 85%
15:00 -7°C° 0 mm 4 m/s 745 mmHg 85%
16:00 -7°C° 0 mm 4 m/s 744 mmHg 88%
17:00 -6°C° 0 mm 3 m/s 744 mmHg 91%
18:00 -5°C° 0 mm 2 m/s 744 mmHg 94%
19:00 -6°C° 0.3 mm 3 m/s 743 mmHg 94%
20:00 -5°C° 0.3 mm 4 m/s 743 mmHg 94%
21:00 -6°C° 0.3 mm 5 m/s 743 mmHg 94%
22:00 -6°C° 0.4 mm 5 m/s 742 mmHg 94%
23:00 -6°C° 0.4 mm 6 m/s 742 mmHg 93%

8 Março, Segunda-feira

Tempo Temperatura Precipitação Vento Pressão Humidade
00:00 -6°C° 0.4 mm 6 m/s 741 mmHg 93%
01:00 -6°C° 0.3 mm 6 m/s 741 mmHg 93%
02:00 -6°C° 0.3 mm 6 m/s 740 mmHg 93%
03:00 -6°C° 0.3 mm 6 m/s 740 mmHg 93%
04:00 -6°C° 0.2 mm 6 m/s 740 mmHg 92%
05:00 -6°C° 0.2 mm 6 m/s 740 mmHg 92%
06:00 -6°C° 0.2 mm 6 m/s 740 mmHg 91%
07:00 -6°C° 0.1 mm 6 m/s 741 mmHg 92%
08:00 -5°C° 0.1 mm 6 m/s 741 mmHg 93%
09:00 -6°C° 0.1 mm 7 m/s 741 mmHg 93%
10:00 -6°C° 0.2 mm 6 m/s 742 mmHg 89%
11:00 -6°C° 0.2 mm 6 m/s 743 mmHg 85%
12:00 -7°C° 0.2 mm 5 m/s 744 mmHg 81%
13:00 -7°C° 0 mm 5 m/s 744 mmHg 82%
14:00 -8°C° 0 mm 4 m/s 745 mmHg 84%
15:00 -8°C° 0 mm 4 m/s 746 mmHg 85%
16:00 -8°C° 0 mm 3 m/s 747 mmHg 87%
17:00 -8°C° 0 mm 2 m/s 747 mmHg 90%
18:00 -10°C° 0 mm 2 m/s 748 mmHg 92%
19:00 -10°C° 0 mm 1 m/s 749 mmHg 93%
20:00 -12°C° 0 mm 1 m/s 749 mmHg 94%
21:00 -13°C° 0 mm 1 m/s 750 mmHg 95%
22:00 -14°C° 0 mm 1 m/s 750 mmHg 96%
23:00 -14°C° 0 mm 0 m/s 750 mmHg 96%
Mostrar mais

Necessitamos do seu Consentimento

A Meteoprog e os seus Fornecedores de Serviços podem armazenar e aceder a dados pessoais como cookies, identificadores do dispositivo ou outras tecnologias semelhantes existentes no seu dispositivo e processar estes dados para personalizar conteúdos e anúncios, assim como funcionalidades nas redes sociais e análise de tráfego.

  • Armazenar e/ou aceder a informações no seu dispositivo

    Os cookies, identificadores do dispositivo ou outras informações podem ser armazenados ou acedidos no seu dispositivo, para os fins acima indicados.

  • Anúncios e conteúdos personalizados, medição de anúncios e conteúdos, dados sobre o público-alvo e desenvolvimento de produtos

    Os anúncios e os conteúdos podem ser personalizados com base num perfil. Podem ser adicionados dados adicionais para uma maior personalização dos anúncios e dos conteúdos. A eficácia dos anúncios e dos conteúdos pode ser medida. Podem ser obtidas informações sobre o público que visualizou os anúncios e os conteúdos. Estes dados podem ser usados para desenvolver ou melhorar sistemas, softwares ou a experiência do utilizador.

Ao clicar em "Eu concordo”, permitirá o uso de cookies, identificadores do dispositivo e web beacons mencionados ou outras tecnologias semelhantes. As configurações do navegador do seu dispositivo podem ser alteradas.

Para certos fins, podem ser invocados interesses legítimos ao invés de consentimento. Pode ler mais informação sobre este assunto na nossa Política de Privacidade e Cookies.